| time (UTC) | temp F | wind direction | speed MPH | gust MPH | rain 1hr in | rain 24hr in | rain mn in | humidity % | barometer mb |
| 20260509083326 | 46 | 319 | 0.0 | 0.0 | 0.01 | 0.02 | 0.01 | 91 | 1013.5 |
| 20260509082315 | 46 | 319 | 0.0 | 0.0 | 0.01 | 0.02 | 0.01 | 91 | 1013.5 |
| 20260509081325 | 46 | 319 | 0.0 | 0.0 | 0.01 | 0.02 | 0.01 | 90 | 1013.5 |
| 20260509080315 | 46 | 319 | 0.0 | 0.0 | 0.00 | 0.01 | 0.00 | 90 | 1013.5 |
| 20260509075331 | 46 | 319 | 0.0 | 0.0 | 0.00 | 0.01 | 0.00 | 90 | 1013.4 |
| 20260509073328 | 46 | 319 | 0.0 | 0.0 | 0.00 | 0.01 | 0.00 | 89 | 1013.2 |
| 20260509072330 | 46 | 319 | 0.0 | 0.0 | 0.00 | 0.01 | 0.00 | 89 | 1013.1 |
| 20260509071318 | 46 | 319 | 0.0 | 0.0 | 0.00 | 0.01 | 0.00 | 89 | 1013.2 |
| 20260509070351 | 46 | 319 | 0.0 | 0.0 | 0.00 | 0.01 | 0.00 | 88 | 1013.0 |
| 20260509065320 | 46 | 319 | 0.0 | 0.0 | 0.00 | 0.01 | 0.00 | 89 | 1013.0 |
| 20260509064337 | 46 | 319 | 0.0 | 0.0 | 0.00 | 0.01 | 0.00 | 88 | 1013.3 |
| 20260509063327 | 46 | 319 | 0.0 | 0.0 | 0.00 | 0.01 | 0.00 | 88 | 1013.4 |
| 20260509062336 | 46 | 319 | 0.0 | 0.0 | 0.00 | 0.01 | 0.00 | 88 | 1013.5 |
| 20260509061326 | 46 | 319 | 0.0 | 0.0 | 0.00 | 0.01 | 0.00 | 88 | 1013.6 |
| 20260509060315 | 45 | 319 | 0.0 | 0.0 | 0.00 | 0.01 | 0.00 | 88 | 1013.9 |
| 20260509055323 | 46 | 319 | 0.0 | 0.0 | 0.00 | 0.01 | 0.00 | 87 | 1013.8 |
| 20260509054313 | 46 | 319 | 0.0 | 0.0 | 0.00 | 0.01 | 0.00 | 87 | 1013.8 |
| 20260509053328 | 46 | 319 | 0.0 | 0.0 | 0.00 | 0.01 | 0.00 | 86 | 1013.7 |
| 20260509052315 | 46 | 319 | 0.0 | 0.0 | 0.00 | 0.01 | 0.00 | 86 | 1013.7 |
| 20260509051322 | 46 | 319 | 0.0 | 0.0 | 0.00 | 0.01 | 0.00 | 86 | 1013.8 |
| 20260509050316 | 46 | 319 | 0.0 | 0.0 | 0.00 | 0.01 | 0.00 | 86 | 1013.8 |
| 20260509045347 | 46 | 319 | 0.0 | 0.0 | 0.00 | 0.01 | 0.00 | 86 | 1013.8 |
| 20260509044320 | 45 | 319 | 0.0 | 0.0 | 0.00 | 0.01 | 0.00 | 85 | 1013.9 |
| 20260509043337 | 45 | 319 | 0.0 | 0.0 | 0.00 | 0.01 | 0.00 | 85 | 1014.0 |
| 20260509042344 | 45 | 319 | 0.0 | 0.0 | 0.00 | 0.01 | 0.00 | 85 | 1014.0 |
| 20260509041331 | 45 | 319 | 0.0 | 0.0 | 0.00 | 0.01 | 0.00 | 85 | 1014.0 |
| 20260509040319 | 45 | 319 | 0.0 | 0.0 | 0.00 | 0.01 | 0.00 | 85 | 1014.1 |
| 20260509035327 | 45 | 319 | 0.0 | 0.0 | 0.00 | 0.01 | 0.01 | 83 | 1014.0 |
| 20260509034336 | 45 | 319 | 0.0 | 0.0 | 0.00 | 0.01 | 0.01 | 84 | 1013.9 |
| 20260509033327 | 45 | 319 | 0.0 | 0.0 | 0.00 | 0.01 | 0.01 | 83 | 1013.9 |
| 20260509032317 | 45 | 319 | 0.0 | 0.0 | 0.00 | 0.01 | 0.01 | 82 | 1013.7 |
| 20260509031326 | 45 | 319 | 0.0 | 0.0 | 0.00 | 0.01 | 0.01 | 82 | 1013.8 |
| 20260509030335 | 44 | 319 | 0.0 | 0.0 | 0.00 | 0.01 | 0.01 | 83 | 1013.5 |
| 20260509025324 | 44 | 319 | 0.0 | 0.0 | 0.00 | 0.01 | 0.01 | 82 | 1013.7 |
| 20260509024312 | 44 | 319 | 0.0 | 0.0 | 0.00 | 0.01 | 0.01 | 81 | 1013.4 |
| 20260509023319 | 44 | 319 | 0.0 | 0.0 | 0.00 | 0.01 | 0.01 | 82 | 1013.3 |
| 20260509022328 | 43 | 319 | 0.0 | 0.0 | 0.00 | 0.01 | 0.01 | 81 | 1013.5 |
| 20260509021343 | 43 | 319 | 0.0 | 0.0 | 0.00 | 0.01 | 0.01 | 81 | 1013.5 |
| 20260509020330 | 43 | 320 | 0.0 | 0.0 | 0.00 | 0.01 | 0.01 | 79 | 1013.5 |
| 20260509015319 | 44 | 319 | 0.0 | 0.0 | 0.00 | 0.01 | 0.01 | 79 | 1013.4 |
| 20260509014328 | 44 | 319 | 0.0 | 0.0 | 0.00 | 0.01 | 0.01 | 77 | 1013.5 |
| 20260509013334 | 45 | 319 | 0.0 | 0.0 | 0.00 | 0.01 | 0.01 | 76 | 1013.3 |
| 20260509012323 | 45 | 319 | 0.0 | 0.0 | 0.00 | 0.01 | 0.01 | 76 | 1013.2 |
| 20260509011312 | 46 | 319 | 0.0 | 0.0 | 0.00 | 0.01 | 0.01 | 73 | 1013.2 |
| 20260509010345 | 46 | 319 | 0.0 | 0.0 | 0.00 | 0.01 | 0.01 | 74 | 1012.9 |
| 20260509005331 | 47 | 319 | 0.0 | 0.0 | 0.00 | 0.01 | 0.01 | 73 | 1012.7 |
| 20260509004337 | 48 | 319 | 0.0 | 0.0 | 0.00 | 0.01 | 0.01 | 74 | 1012.6 |
| 20260509003327 | 48 | 319 | 0.0 | 0.0 | 0.00 | 0.01 | 0.01 | 72 | 1012.4 |
| 20260509002316 | 49 | 319 | 0.0 | 0.0 | 0.00 | 0.01 | 0.01 | 72 | 1012.2 |
| 20260509001350 | 50 | 319 | 0.0 | 0.0 | 0.00 | 0.01 | 0.01 | 70 | 1012.1 |
| 20260509000318 | 51 | 319 | 0.0 | 0.0 | 0.00 | 0.01 | 0.01 | 69 | 1012.3 |
| 20260508235316 | 52 | 319 | 0.0 | 0.0 | 0.00 | 0.01 | 0.01 | 67 | 1012.1 |
| 20260508234326 | 53 | 319 | 0.0 | 0.0 | 0.00 | 0.01 | 0.01 | 64 | 1012.0 |
| 20260508233316 | 55 | 319 | 0.0 | 0.0 | 0.00 | 0.01 | 0.01 | 62 | 1011.8 |
| 20260508232332 | 56 | 319 | 0.0 | 0.0 | 0.00 | 0.01 | 0.01 | 56 | 1011.6 |
| 20260508231320 | 56 | 319 | 0.0 | 0.0 | 0.00 | 0.01 | 0.01 | 54 | 1011.5 |
| 20260508230357 | 57 | 319 | 0.0 | 0.0 | 0.00 | 0.01 | 0.01 | 52 | 1011.5 |
| 20260508225323 | 58 | 318 | 0.0 | 2.0 | 0.00 | 0.01 | 0.01 | 50 | 1011.4 |
| 20260508224313 | 59 | 342 | 0.0 | 2.0 | 0.00 | 0.01 | 0.01 | 49 | 1011.1 |
| 20260508223323 | 60 | 120 | 0.0 | 3.0 | 0.00 | 0.01 | 0.01 | 49 | 1011.1 |
| 20260508222314 | 61 | 290 | 0.0 | 2.0 | 0.00 | 0.01 | 0.01 | 49 | 1011.0 |
| 20260508221322 | 60 | 324 | 0.0 | 4.0 | 0.00 | 0.01 | 0.01 | 48 | 1011.2 |
| 20260508220337 | 60 | 278 | 0.0 | 3.0 | 0.00 | 0.01 | 0.01 | 53 | 1011.2 |
| 20260508215326 | 59 | 289 | 0.0 | 3.0 | 0.00 | 0.01 | 0.01 | 53 | 1011.2 |
| 20260508214321 | 57 | 77 | 1.0 | 4.0 | 0.00 | 0.01 | 0.01 | 56 | 1011.1 |
| 20260508213330 | 58 | 30 | 1.0 | 5.0 | 0.00 | 0.01 | 0.01 | 54 | 1011.4 |
| 20260508212338 | 58 | 206 | 0.0 | 3.0 | 0.00 | 0.01 | 0.01 | 55 | 1011.3 |
| 20260508211328 | 58 | 288 | 0.0 | 3.0 | 0.00 | 0.01 | 0.01 | 54 | 1011.4 |
| 20260508210337 | 59 | 1 | 2.0 | 4.0 | 0.00 | 0.01 | 0.01 | 55 | 1011.2 |
| 20260508205325 | 60 | 281 | 0.0 | 3.0 | 0.00 | 0.01 | 0.01 | 57 | 1011.0 |
| 20260508204314 | 58 | 180 | 0.0 | 5.0 | 0.00 | 0.01 | 0.01 | 57 | 1011.2 |
| 20260508203350 | 57 | 49 | 1.0 | 5.0 | 0.00 | 0.01 | 0.01 | 57 | 1011.0 |
| 20260508202317 | 56 | 60 | 1.0 | 3.0 | 0.00 | 0.01 | 0.01 | 62 | 1011.2 |
| 20260508201327 | 55 | 146 | 1.0 | 3.0 | 0.01 | 0.01 | 0.01 | 62 | 1011.2 |
| 20260508200316 | 54 | 291 | 2.0 | 6.0 | 0.01 | 0.01 | 0.01 | 64 | 1011.4 |
| 20260508195333 | 53 | 288 | 1.0 | 4.0 | 0.01 | 0.01 | 0.01 | 67 | 1011.4 |
| 20260508194327 | 52 | 320 | 0.0 | 2.0 | 0.01 | 0.01 | 0.01 | 74 | 1011.4 |
| 20260508193315 | 51 | 261 | 0.0 | 2.0 | 0.01 | 0.01 | 0.01 | 75 | 1011.6 |
| 20260508192328 | 50 | 352 | 1.0 | 7.0 | 0.01 | 0.01 | 0.01 | 72 | 1011.6 |
| 20260508191317 | 52 | 306 | 2.0 | 8.0 | 0.00 | 0.00 | 0.00 | 69 | 1012.3 |
| 20260508190326 | 54 | 70 | 2.0 | 6.0 | 0.00 | 0.00 | 0.00 | 58 | 1011.8 |
| 20260508185315 | 57 | 293 | 1.0 | 9.0 | 0.00 | 0.00 | 0.00 | 49 | 1010.9 |
| 20260508184330 | 58 | 22 | 1.0 | 4.0 | 0.00 | 0.00 | 0.00 | 47 | 1010.6 |
| 20260508183316 | 60 | 39 | 2.0 | 3.0 | 0.00 | 0.00 | 0.00 | 46 | 1010.4 |
| 20260508182325 | 59 | 286 | 1.0 | 4.0 | 0.00 | 0.00 | 0.00 | 45 | 1010.7 |
| 20260508181313 | 60 | 288 | 1.0 | 5.0 | 0.00 | 0.00 | 0.00 | 47 | 1010.7 |
| 20260508180350 | 58 | 311 | 1.0 | 5.0 | 0.00 | 0.00 | 0.00 | 50 | 1011.0 |
| 20260508175316 | 57 | 23 | 1.0 | 7.0 | 0.00 | 0.00 | 0.00 | 49 | 1011.2 |
| 20260508174326 | 57 | 160 | 1.0 | 5.0 | 0.00 | 0.00 | 0.00 | 47 | 1011.4 |
| 20260508173315 | 57 | 155 | 3.0 | 13.0 | 0.00 | 0.00 | 0.00 | 45 | 1011.5 |
| 20260508172322 | 58 | 23 | 2.0 | 7.0 | 0.00 | 0.00 | 0.00 | 46 | 1011.3 |
| 20260508171357 | 58 | 284 | 1.0 | 3.0 | 0.00 | 0.00 | 0.00 | 45 | 1011.1 |
| 20260508170326 | 57 | 189 | 2.0 | 7.0 | 0.00 | 0.00 | 0.00 | 46 | 1011.3 |
| 20260508165314 | 56 | 293 | 1.0 | 4.0 | 0.00 | 0.00 | 0.00 | 47 | 1011.3 |
| 20260508164333 | 57 | 212 | 0.0 | 3.0 | 0.00 | 0.00 | 0.00 | 45 | 1011.3 |
| 20260508163328 | 57 | 97 | 2.0 | 4.0 | 0.00 | 0.00 | 0.00 | 43 | 1011.3 |
| 20260508162324 | 58 | 9 | 1.0 | 6.0 | 0.00 | 0.00 | 0.00 | 45 | 1011.2 |
| 20260508161315 | 59 | 36 | 2.0 | 6.0 | 0.00 | 0.00 | 0.00 | 43 | 1011.4 |
| 20260508160331 | 58 | 308 | 2.0 | 6.0 | 0.00 | 0.00 | 0.00 | 45 | 1011.3 |
| 20260508155322 | 59 | 306 | 1.0 | 3.0 | 0.00 | 0.00 | 0.00 | 41 | 1011.4 |
| 20260508154331 | 59 | 299 | 1.0 | 6.0 | 0.00 | 0.00 | 0.00 | 44 | 1011.6 |
| 20260508153321 | 59 | 18 | 2.0 | 5.0 | 0.00 | 0.00 | 0.00 | 44 | 1011.7 |
| 20260508152337 | 59 | 321 | 1.0 | 4.0 | 0.00 | 0.00 | 0.00 | 47 | 1011.7 |
| 20260508151352 | 59 | 323 | 1.0 | 4.0 | 0.00 | 0.00 | 0.00 | 48 | 1011.4 |
| 20260508150318 | 58 | 295 | 1.0 | 3.0 | 0.00 | 0.00 | 0.00 | 48 | 1011.3 |
| 20260508144315 | 56 | 20 | 0.0 | 3.0 | 0.00 | 0.00 | 0.00 | 50 | 1011.3 |
| 20260508143325 | 55 | 97 | 1.0 | 4.0 | 0.00 | 0.00 | 0.00 | 54 | 1011.4 |
| 20260508142315 | 54 | 4 | 2.0 | 6.0 | 0.00 | 0.00 | 0.00 | 53 | 1011.6 |
| 20260508141329 | 53 | 304 | 0.0 | 3.0 | 0.00 | 0.00 | 0.00 | 55 | 1011.7 |
| 20260508140316 | 53 | 321 | 0.0 | 3.0 | 0.00 | 0.00 | 0.00 | 57 | 1012.0 |
| 20260508135330 | 52 | 23 | 0.0 | 2.0 | 0.00 | 0.00 | 0.00 | 60 | 1011.9 |
| 20260508134338 | 52 | 309 | 0.0 | 2.0 | 0.00 | 0.00 | 0.00 | 57 | 1011.8 |
| 20260508133325 | 51 | 353 | 0.0 | 2.0 | 0.00 | 0.00 | 0.00 | 59 | 1011.8 |
| 20260508132315 | 51 | 288 | 0.0 | 3.0 | 0.00 | 0.00 | 0.00 | 62 | 1012.0 |
| 20260508131349 | 50 | 1 | 0.0 | 4.0 | 0.00 | 0.00 | 0.00 | 64 | 1012.4 |
| 20260508130316 | 50 | 343 | 1.0 | 4.0 | 0.00 | 0.00 | 0.00 | 62 | 1012.4 |
| 20260508125324 | 49 | 6 | 1.0 | 2.0 | 0.00 | 0.00 | 0.00 | 68 | 1012.3 |
| 20260508124314 | 48 | 343 | 0.0 | 3.0 | 0.00 | 0.00 | 0.00 | 67 | 1012.3 |
| 20260508123328 | 48 | 266 | 1.0 | 2.0 | 0.00 | 0.00 | 0.00 | 71 | 1012.3 |
| 20260508122318 | 47 | 285 | 0.0 | 2.0 | 0.00 | 0.00 | 0.00 | 75 | 1012.2 |
| 20260508121326 | 46 | 342 | 0.0 | 1.0 | 0.00 | 0.00 | 0.00 | 76 | 1012.2 |
| 20260508120315 | 46 | 341 | 0.0 | 2.0 | 0.00 | 0.00 | 0.00 | 76 | 1012.3 |
| 20260508115332 | 46 | 34 | 0.0 | 2.0 | 0.00 | 0.00 | 0.00 | 78 | 1012.2 |
| 20260508114322 | 45 | 322 | 0.0 | 2.0 | 0.00 | 0.00 | 0.00 | 79 | 1012.3 |
| 20260508113314 | 44 | 303 | 0.0 | 1.0 | 0.00 | 0.00 | 0.00 | 81 | 1012.2 |
| 20260508112345 | 43 | 41 | 0.0 | 0.0 | 0.00 | 0.00 | 0.00 | 83 | 1012.2 |
| 20260508111319 | 42 | 45 | 0.0 | 0.0 | 0.00 | 0.00 | 0.00 | 84 | 1012.1 |
| 20260508110326 | 43 | 45 | 0.0 | 0.0 | 0.00 | 0.00 | 0.00 | 84 | 1012.0 |
| 20260508105314 | 43 | 45 | 0.0 | 0.0 | 0.00 | 0.00 | 0.00 | 83 | 1012.0 |
| 20260508104352 | 43 | 45 | 0.0 | 0.0 | 0.00 | 0.00 | 0.00 | 82 | 1012.0 |
| 20260508103318 | 43 | 45 | 0.0 | 0.0 | 0.00 | 0.00 | 0.00 | 81 | 1012.0 |
| 20260508102327 | 43 | 45 | 0.0 | 0.0 | 0.00 | 0.00 | 0.00 | 80 | 1011.7 |
| 20260508101317 | 44 | 45 | 0.0 | 0.0 | 0.00 | 0.00 | 0.00 | 80 | 1011.6 |
| 20260508100325 | 44 | 45 | 0.0 | 0.0 | 0.00 | 0.00 | 0.00 | 80 | 1011.5 |
| 20260508095331 | 44 | 45 | 0.0 | 0.0 | 0.00 | 0.01 | 0.00 | 81 | 1011.5 |
| 20260508094340 | 44 | 45 | 0.0 | 0.0 | 0.00 | 0.01 | 0.00 | 81 | 1011.2 |
| 20260508093355 | 44 | 45 | 0.0 | 0.0 | 0.00 | 0.01 | 0.00 | 80 | 1011.1 |
| 20260508092323 | 44 | 45 | 0.0 | 0.0 | 0.00 | 0.01 | 0.00 | 78 | 1011.2 |
| 20260508091333 | 44 | 45 | 0.0 | 0.0 | 0.00 | 0.01 | 0.00 | 78 | 1011.1 |
| 20260508090322 | 44 | 45 | 0.0 | 0.0 | 0.00 | 0.01 | 0.00 | 77 | 1011.3 |
| 20260508085312 | 44 | 45 | 0.0 | 0.0 | 0.00 | 0.04 | 0.00 | 76 | 1011.2 |
| 20260508084349 | 44 | 45 | 0.0 | 0.0 | 0.00 | 0.04 | 0.00 | 76 | 1011.3 |